Simultaneous Nadir Overpasses (SNOs) Predictions

Prediction of SNOs between GOES-16 and METOP-B Satellite Orbit:

Table of predicted SNOs for the next 14.0 days since TLE Epoch: 12/3/2022
Index Date Time (GOES-16) GOES-16 Lat,Lon METOP-B Lat,Lon Distance(km) Time Diff (sec)
1 12/04/2022 02:39:25 0.05, -75.19 -0.32, -76.91 195.55 80
2 12/05/2022 02:16:06 0.05, -75.19 0.81, -71.92 373.93 80
3 12/06/2022 14:37:38 -0.04, -75.22 0.25, -76.48 143.28 80
4 12/07/2022 14:14:20 -0.04, -75.23 -0.88, -71.49 426.50 80
5 12/09/2022 02:36:01 0.04, -75.23 -0.13, -76.09 97.42 80
6 12/10/2022 02:12:42 0.03, -75.24 0.94, -71.08 472.64 80
7 12/11/2022 14:31:35 -0.03, -75.27 0.05, -75.65 43.74 80
8 12/14/2022 02:29:57 0.02, -75.29 0.02, -75.25 4.34 80
9 12/16/2022 14:30:51 -0.02, -75.35 -0.11, -74.82 59.82 80
